Humidity-temperature Sensor

Selected Measurement Type: Air Temperature

 
Air Temperature [°C]     6 entries per hour
Showing data from 5/28/2017 (00:00:00 Z) to 5/21/2017 (00:01:00 Z)
Previous Next [ Day | 3-Days | 7-Days ]
First Last
Prev [ Day | 3-Days | 7-Days ] Next
First Last

Start Time:     :
End Time:     :     
Time (in GMT) :00 :50 :40 :30 :20 :10
Previous Next [ Day | 3-Days | 7-Days ]
First Last
Prev [ Day | 3-Days | 7-Days ] Next
First Last


123 => good data
MM => data is determined as missing
-- => data not received/configured
Back to Top Back to Top
5/28/2017 00:00 to 23:10 27.76 27.78 27.78 27.76 27.71 27.73
5/27/2017 23:00 to 22:10 27.80 27.64 27.63 27.55 27.68 27.66
5/27/2017 22:00 to 21:10 27.62 27.56 27.57 27.60 27.61 27.58
5/27/2017 21:00 to 20:10 27.59 27.63 27.44 27.39 27.36 27.51
5/27/2017 20:00 to 19:10 27.46 27.41 27.39 27.44 27.38 27.53
5/27/2017 19:00 to 18:10 27.46 27.39 27.42 27.42 27.44 27.52
5/27/2017 18:00 to 17:10 27.46 27.49 27.36 27.38 27.44 27.45
5/27/2017 17:00 to 16:10 27.37 27.32 27.34 27.43 27.43 27.49
5/27/2017 16:00 to 15:10 27.59 27.45 27.52 27.47 27.30 27.30
5/27/2017 15:00 to 14:10 27.52 27.56 27.39 27.47 27.38 27.31
5/27/2017 14:00 to 13:10 27.33 27.18 27.22 27.12 27.11 27.16
5/27/2017 13:00 to 12:10 27.12 27.18 27.15 27.05 27.16 27.09
5/27/2017 12:00 to 11:10 27.16 27.02 27.03 27.06 27.22 27.16
5/27/2017 11:00 to 10:10 27.11 27.01 27.13 27.07 27.07 27.17
5/27/2017 10:00 to 9:10 27.16 27.13 27.11 27.21 27.11 27.10
5/27/2017 09:00 to 8:10 27.16 27.18 27.16 27.29 27.38 27.31
5/27/2017 08:00 to 7:10 27.21 27.31 27.27 27.36 27.34 27.40
5/27/2017 07:00 to 6:10 27.34 27.39 27.51 27.45 27.50 27.52
5/27/2017 06:00 to 5:10 27.54 27.55 27.43 27.58 27.54 27.52
5/27/2017 05:00 to 4:10 27.59 27.53 27.54 27.53 27.57 27.63
5/27/2017 04:00 to 3:10 27.65 27.63 27.63 27.73 27.72 27.68
5/27/2017 03:00 to 2:10 27.66 27.59 27.64 27.65 27.64 27.69
5/27/2017 02:00 to 1:10 27.66 27.60 27.64 27.58 27.63 27.58
5/27/2017 01:00 to 0:10 27.64 27.95 27.65 27.81 27.98 28.01
5/27/2017 00:00 to 23:10 28.04 28.14 28.02 27.95 27.95 27.87
5/26/2017 23:00 to 22:10 27.96 27.92 27.90 27.87 27.96 27.77
5/26/2017 22:00 to 21:10 27.89 27.90 27.93 27.74 27.81 27.75
5/26/2017 21:00 to 20:10 27.81 27.81 27.81 27.77 27.75 27.76
5/26/2017 20:00 to 19:10 27.63 27.68 27.67 27.70 27.68 27.72
5/26/2017 19:00 to 18:10 27.75 27.69 27.63 27.63 27.56 27.61
5/26/2017 18:00 to 17:10 27.61 27.64 27.67 27.71 27.58 27.58
5/26/2017 17:00 to 16:10 27.64 27.65 27.64 27.65 27.49 27.60
5/26/2017 16:00 to 15:10 27.56 27.56 27.54 27.59 27.65 27.50
5/26/2017 15:00 to 14:10 27.58 27.55 27.56 27.62 27.55 27.56
5/26/2017 14:00 to 13:10 27.54 27.42 27.41 27.39 27.42 27.38
5/26/2017 13:00 to 12:10 27.42 27.45 27.36 27.46 27.35 27.29
5/26/2017 12:00 to 11:10 27.26 27.32 27.29 27.25 27.26 27.33
5/26/2017 11:00 to 10:10 -- -- -- -- -- --
5/26/2017 10:00 to 9:10 27.27 27.36 27.34 27.33 27.40 27.34
5/26/2017 09:00 to 8:10 27.36 27.38 27.44 27.40 27.44 27.49
5/26/2017 08:00 to 7:10 27.48 27.60 27.52 27.55 27.49 27.55
5/26/2017 07:00 to 6:10 27.39 27.52 27.45 27.53 27.53 27.61
5/26/2017 06:00 to 5:10 27.56 27.59 27.61 27.71 27.61 27.71
5/26/2017 05:00 to 4:10 27.72 27.77 27.68 27.61 27.56 27.62
5/26/2017 04:00 to 3:10 27.65 27.64 27.66 27.62 27.57 27.58
5/26/2017 03:00 to 2:10 27.56 27.58 27.56 27.62 27.68 27.61
5/26/2017 02:00 to 1:10 27.63 27.66 27.69 27.65 27.65 27.63
5/26/2017 01:00 to 0:10 27.69 27.74 27.83 27.87 27.72 27.94
5/26/2017 00:00 to 23:10 27.88 27.80 27.65 27.68 27.70 27.91
5/25/2017 23:00 to 22:10 28.03 27.84 27.79 27.87 27.90 27.91
5/25/2017 22:00 to 21:10 27.86 27.91 27.85 27.91 27.78 27.74
5/25/2017 21:00 to 20:10 27.83 27.77 27.80 27.87 27.77 27.80
5/25/2017 20:00 to 19:10 27.83 27.78 27.73 27.65 27.70 27.72
5/25/2017 19:00 to 18:10 27.75 27.71 27.74 27.69 27.69 27.70
5/25/2017 18:00 to 17:10 27.72 27.72 27.69 27.72 27.61 27.71
5/25/2017 17:00 to 16:10 27.60 27.64 27.66 27.63 27.66 27.62
5/25/2017 16:00 to 15:10 27.76 27.66 27.65 27.68 27.56 27.61
5/25/2017 15:00 to 14:10 27.67 27.58 27.58 27.54 27.50 27.60
5/25/2017 14:00 to 13:10 27.57 27.53 27.50 27.57 27.61 27.62
5/25/2017 13:00 to 12:10 27.56 27.47 27.53 27.67 27.55 27.63
5/25/2017 12:00 to 11:10 27.57 27.58 27.67 27.52 27.54 27.53
5/25/2017 11:00 to 10:10 27.58 27.50 27.49 27.54 27.47 27.47
5/25/2017 10:00 to 9:10 27.48 27.42 27.40 27.48 27.46 27.43
5/25/2017 09:00 to 8:10 27.44 27.42 27.51 27.56 27.58 27.54
5/25/2017 08:00 to 7:10 27.55 27.58 27.56 27.61 27.64 27.60
5/25/2017 07:00 to 6:10 27.65 27.63 27.63 27.65 27.65 27.81
5/25/2017 06:00 to 5:10 27.68 27.63 27.73 27.70 27.69 27.69
5/25/2017 05:00 to 4:10 27.63 27.65 27.63 27.64 27.57 27.61
5/25/2017 04:00 to 3:10 27.67 27.71 27.65 27.72 27.71 27.65
5/25/2017 03:00 to 2:10 27.67 27.70 27.76 27.74 27.73 27.76
5/25/2017 02:00 to 1:10 27.73 27.69 27.71 27.73 27.71 27.75
5/25/2017 01:00 to 0:10 27.77 27.91 27.89 27.85 27.81 27.88
5/25/2017 00:00 to 23:10 27.88 27.76 27.70 27.84 27.99 27.94
5/24/2017 23:00 to 22:10 -- -- -- -- -- --
5/24/2017 22:00 to 21:10 28.02 27.93 27.96 27.94 27.94 28.03
5/24/2017 21:00 to 20:10 27.97 27.94 28.03 28.02 27.96 27.90
5/24/2017 20:00 to 19:10 27.99 28.02 27.97 28.04 28.12 28.09
5/24/2017 19:00 to 18:10 28.02 27.98 28.02 27.97 28.02 27.98
5/24/2017 18:00 to 17:10 28.00 28.09 28.00 28.04 28.07 27.96
5/24/2017 17:00 to 16:10 27.91 27.95 27.92 27.99 27.93 27.98
5/24/2017 16:00 to 15:10 27.91 27.96 27.88 27.78 27.82 27.85
5/24/2017 15:00 to 14:10 27.86 27.87 27.90 27.90 27.86 27.84
5/24/2017 14:00 to 13:10 27.86 27.68 27.76 27.86 27.76 27.73
5/24/2017 13:00 to 12:10 27.83 27.90 27.76 27.72 27.73 27.78
5/24/2017 12:00 to 11:10 27.67 27.75 27.78 27.75 27.77 27.79
5/24/2017 11:00 to 10:10 27.76 27.79 27.72 27.75 27.82 27.70
5/24/2017 10:00 to 9:10 27.73 27.82 27.89 27.80 27.90 27.82
5/24/2017 09:00 to 8:10 27.91 27.91 27.91 27.97 27.98 27.96
5/24/2017 08:00 to 7:10 28.00 27.95 28.08 28.01 28.02 28.08
5/24/2017 07:00 to 6:10 28.14 28.02 28.10 28.03 28.03 28.00
5/24/2017 06:00 to 5:10 27.99 28.08 28.05 28.10 28.04 28.05
5/24/2017 05:00 to 4:10 28.04 28.11 28.03 28.07 28.08 28.13
5/24/2017 04:00 to 3:10 28.16 28.02 28.08 28.11 28.03 28.04
5/24/2017 03:00 to 2:10 28.09 28.10 28.07 28.05 28.10 28.09
5/24/2017 02:00 to 1:10 28.18 28.12 28.10 28.10 28.17 28.06
5/24/2017 01:00 to 0:10 28.08 28.15 28.08 28.08 28.10 27.97
5/24/2017 00:00 to 23:10 28.04 28.02 27.79 28.06 27.99 27.93
5/23/2017 23:00 to 22:10 27.90 28.32 28.16 27.87 28.22 28.15
5/23/2017 22:00 to 21:10 28.14 28.01 28.02 27.83 27.82 28.31
5/23/2017 21:00 to 20:10 28.34 28.25 28.25 28.26 28.30 28.16
5/23/2017 20:00 to 19:10 28.16 27.98 28.11 28.21 28.20 28.22
5/23/2017 19:00 to 18:10 28.17 28.25 28.17 28.30 28.27 28.31
5/23/2017 18:00 to 17:10 28.22 28.21 28.16 28.19 28.17 28.21
5/23/2017 17:00 to 16:10 28.15 28.17 28.18 28.22 28.21 28.24
5/23/2017 16:00 to 15:10 28.12 28.19 28.03 28.02 27.99 28.17
5/23/2017 15:00 to 14:10 28.09 28.02 28.02 28.03 28.06 27.97
5/23/2017 14:00 to 13:10 27.91 27.40 27.21 27.29 27.37 27.57
5/23/2017 13:00 to 12:10 27.58 27.47 26.82 26.97 26.91 26.59
5/23/2017 12:00 to 11:10 27.31 27.20 27.60 27.64 27.81 27.80
5/23/2017 11:00 to 10:10 27.83 27.78 27.77 27.80 27.76 27.55
5/23/2017 10:00 to 9:10 27.56 27.57 27.71 27.71 27.50 27.38
5/23/2017 09:00 to 8:10 27.49 27.77 27.98 27.91 27.92 27.91
5/23/2017 08:00 to 7:10 27.85 27.90 27.88 27.91 27.93 27.92
5/23/2017 07:00 to 6:10 27.96 27.95 28.00 27.99 28.01 28.03
5/23/2017 06:00 to 5:10 28.05 28.03 28.05 28.08 27.79 27.76
5/23/2017 05:00 to 4:10 27.75 27.78 27.89 27.75 27.70 27.76
5/23/2017 04:00 to 3:10 27.64 27.48 27.44 27.43 27.84 27.76
5/23/2017 03:00 to 2:10 27.83 28.02 28.12 28.07 28.08 28.07
5/23/2017 02:00 to 1:10 27.97 27.77 27.74 27.89 27.98 28.05
5/23/2017 01:00 to 0:10 28.00 27.91 27.94 27.86 27.55 27.68
5/23/2017 00:00 to 23:10 27.53 27.69 27.50 27.49 27.29 27.33
5/22/2017 23:00 to 22:10 27.38 27.56 27.38 27.19 27.45 27.19
5/22/2017 22:00 to 21:10 26.71 26.65 26.42 26.88 27.00 27.78
5/22/2017 21:00 to 20:10 27.09 27.02 26.16 26.03 26.03 26.67
5/22/2017 20:00 to 19:10 26.75 26.70 26.82 26.97 27.49 27.45
5/22/2017 19:00 to 18:10 27.20 26.95 26.77 26.18 25.73 25.71
5/22/2017 18:00 to 17:10 26.01 26.93 26.67 26.62 26.52 26.61
5/22/2017 17:00 to 16:10 26.86 26.73 26.71 26.49 26.62 26.56
5/22/2017 16:00 to 15:10 26.78 26.75 26.91 26.44 26.35 26.34
5/22/2017 15:00 to 14:10 -- -- -- -- -- --
5/22/2017 14:00 to 13:10 26.01 25.83 26.15 26.21 26.29 26.32
5/22/2017 13:00 to 12:10 25.96 26.17 26.16 26.32 26.55 26.98
5/22/2017 12:00 to 11:10 27.01 26.60 26.95 26.96 26.94 26.95
5/22/2017 11:00 to 10:10 26.84 27.05 26.91 26.71 26.77 26.82
5/22/2017 10:00 to 9:10 26.79 26.69 26.84 26.92 27.00 27.43
5/22/2017 09:00 to 8:10 27.18 27.16 27.36 27.22 27.31 27.35
5/22/2017 08:00 to 7:10 27.46 27.49 27.38 27.60 27.37 27.35
5/22/2017 07:00 to 6:10 27.27 27.26 26.97 26.58 26.35 26.65
5/22/2017 06:00 to 5:10 26.60 26.42 26.59 26.72 26.78 26.69
5/22/2017 05:00 to 4:10 26.62 26.72 26.71 26.60 26.63 26.69
5/22/2017 04:00 to 3:10 26.86 26.98 26.91 26.43 26.09 25.86
5/22/2017 03:00 to 2:10 25.91 25.78 25.66 25.46 25.34 25.18
5/22/2017 02:00 to 1:10 25.15 25.37 25.17 25.12 25.21 25.41
5/22/2017 01:00 to 0:10 25.27 25.35 25.27 25.53 25.67 25.58
5/22/2017 00:00 to 23:10 25.44 25.48 25.42 25.31 25.12 25.13
5/21/2017 23:00 to 22:10 25.04 24.92 24.83 25.06 24.84 24.94
5/21/2017 22:00 to 21:10 24.83 25.22 25.47 25.52 25.54 25.49
5/21/2017 21:00 to 20:10 25.77 25.93 25.89 25.64 25.57 25.53
5/21/2017 20:00 to 19:10 25.98 25.95 26.01 26.09 26.62 26.13
5/21/2017 19:00 to 18:10 26.22 26.04 25.98 25.67 25.49 25.65
5/21/2017 18:00 to 17:10 25.57 25.51 25.35 25.50 25.51 25.45
5/21/2017 17:00 to 16:10 25.50 25.51 25.72 25.84 26.11 26.37
5/21/2017 16:00 to 15:10 26.26 26.00 26.03 26.11 26.26 26.43
5/21/2017 15:00 to 14:10 26.16 25.92 25.98 25.83 25.90 26.18
5/21/2017 14:00 to 13:10 26.52 26.78 26.49 26.13 25.99 25.84
5/21/2017 13:00 to 12:10 25.94 25.94 26.06 26.38 26.46 26.44
5/21/2017 12:00 to 11:10 26.80 27.30 27.41 27.76 27.97 28.04
5/21/2017 11:00 to 10:10 28.06 28.02 28.02 27.98 27.89 27.87
5/21/2017 10:00 to 9:10 27.91 27.86 27.87 27.92 27.84 28.01
5/21/2017 09:00 to 8:10 27.94 27.83 27.78 27.64 27.60 27.63
5/21/2017 08:00 to 7:10 27.69 27.57 27.36 27.43 27.44 27.37
5/21/2017 07:00 to 6:10 27.57 27.55 27.50 27.29 27.29 27.28
5/21/2017 06:00 to 5:10 27.20 27.10 26.88 26.86 26.54 26.52
5/21/2017 05:00 to 4:10 26.36 26.01 26.63 26.90 27.79 27.78
5/21/2017 04:00 to 3:10 27.71 27.69 27.72 27.64 27.62 27.53
5/21/2017 03:00 to 2:10 27.49 27.50 27.53 27.56 27.32 27.26
5/21/2017 02:00 to 1:10 27.29 27.20 27.30 27.28 27.50 27.68
5/21/2017 01:00 to 0:10 28.04 28.05 27.18 27.23 27.34 27.38